When you browse on this site, cookies collect data to enhance your experience and personalize the content and advertising you see.
Visit our Privacy Policy to learn more. By continuing to use the site, you agree to this use of cookies and data.
  • In Slovakia
  • List of Countries
  • For 7 days
  • Water Temperature
  • Weather Map
  • Weather Widgets
  • user-avatar
    Login

    Hourly Weather Ko Samui

    Today, 24 October, Thursday

    Time Temperature Precipitation Wind Pressure Humidity
    00:00 +28°C° 0.3 mm 3 mps 743 mmHg 78%
    01:00 +28°C° 0 mm 3 mps 743 mmHg 77%
    02:00 +28°C° 0.2 mm 3 mps 743 mmHg 78%
    03:00 +27°C° 0.2 mm 2 mps 743 mmHg 79%
    04:00 +27°C° 0.2 mm 2 mps 742 mmHg 79%
    05:00 +27°C° 0.6 mm 2 mps 743 mmHg 79%
    06:00 +27°C° 0.6 mm 1 mps 743 mmHg 79%
    07:00 +27°C° 0.6 mm 1 mps 744 mmHg 78%
    08:00 +29°C° 0.5 mm 1 mps 744 mmHg 73%
    09:00 +30°C° 0.5 mm 1 mps 744 mmHg 68%
    10:00 +31°C° 0.5 mm 1 mps 745 mmHg 63%
    11:00 +31°C° 0.1 mm 1 mps 744 mmHg 63%
    12:00 +31°C° 0.1 mm 1 mps 744 mmHg 63%
    13:00 +31°C° 0.1 mm 1 mps 743 mmHg 63%
    14:00 +31°C° 0 mm 1 mps 742 mmHg 63%
    15:00 +31°C° 0 mm 2 mps 742 mmHg 63%
    16:00 +31°C° 0 mm 3 mps 742 mmHg 63%
    17:00 +30°C° 0 mm 3 mps 742 mmHg 66%
    18:00 +30°C° 0 mm 3 mps 743 mmHg 69%
    19:00 +29°C° 0 mm 3 mps 743 mmHg 72%
    20:00 +29°C° 0 mm 3 mps 744 mmHg 72%
    21:00 +29°C° 0 mm 3 mps 744 mmHg 73%
    22:00 +29°C° 0 mm 3 mps 745 mmHg 74%
    23:00 +28°C° 0 mm 3 mps 745 mmHg 74%

    Tomorrow, 25 October, Friday

    Time Temperature Precipitation Wind Pressure Humidity
    00:00 +28°C° 0 mm 2 mps 744 mmHg 75%
    01:00 +28°C° 0 mm 2 mps 744 mmHg 75%
    02:00 +28°C° 0 mm 2 mps 744 mmHg 77%
    03:00 +27°C° 0 mm 2 mps 743 mmHg 79%
    04:00 +27°C° 0 mm 1 mps 743 mmHg 81%
    05:00 +27°C° 0.5 mm 1 mps 743 mmHg 81%
    06:00 +27°C° 0.5 mm 1 mps 744 mmHg 80%
    07:00 +27°C° 0.5 mm 1 mps 744 mmHg 80%
    08:00 +28°C° 0.2 mm 1 mps 745 mmHg 76%
    09:00 +29°C° 0.2 mm 1 mps 745 mmHg 72%
    10:00 +30°C° 0.2 mm 1 mps 745 mmHg 68%
    11:00 +31°C° 0.1 mm 2 mps 745 mmHg 66%
    12:00 +31°C° 0.1 mm 3 mps 744 mmHg 63%
    13:00 +33°C° 0.1 mm 3 mps 743 mmHg 61%
    14:00 +31°C° 0 mm 3 mps 743 mmHg 62%
    15:00 +31°C° 0 mm 3 mps 742 mmHg 64%
    16:00 +32°C° 0 mm 4 mps 742 mmHg 66%
    17:00 +30°C° 0 mm 4 mps 742 mmHg 68%
    18:00 +30°C° 0 mm 3 mps 743 mmHg 71%
    19:00 +29°C° 0 mm 3 mps 743 mmHg 74%
    20:00 +29°C° 0.1 mm 3 mps 744 mmHg 76%
    21:00 +29°C° 0.1 mm 3 mps 744 mmHg 77%
    22:00 +29°C° 0.1 mm 4 mps 745 mmHg 79%
    23:00 +28°C° 0.3 mm 4 mps 744 mmHg 79%

    Day after tomorrow, 26 October, Saturday

    Time Temperature Precipitation Wind Pressure Humidity
    00:00 +28°C° 0.3 mm 4 mps 744 mmHg 79%
    01:00 +28°C° 0.3 mm 4 mps 744 mmHg 79%
    02:00 +28°C° 0 mm 4 mps 743 mmHg 79%
    03:00 +28°C° 0 mm 4 mps 743 mmHg 78%
    04:00 +28°C° 0 mm 4 mps 743 mmHg 78%
    05:00 +28°C° 0.1 mm 4 mps 743 mmHg 78%
    06:00 +28°C° 0.1 mm 4 mps 744 mmHg 78%
    07:00 +29°C° 0.1 mm 5 mps 744 mmHg 78%
    08:00 +29°C° 0.2 mm 4 mps 744 mmHg 76%
    09:00 +30°C° 0.2 mm 4 mps 745 mmHg 75%
    10:00 +30°C° 0.2 mm 4 mps 745 mmHg 73%
    11:00 +30°C° 0.2 mm 4 mps 744 mmHg 72%
    12:00 +32°C° 0.2 mm 4 mps 744 mmHg 71%
    13:00 +32°C° 0.2 mm 4 mps 743 mmHg 70%
    14:00 +30°C° 0.1 mm 4 mps 743 mmHg 72%
    15:00 +30°C° 0.1 mm 4 mps 742 mmHg 73%
    16:00 +30°C° 0.1 mm 5 mps 742 mmHg 75%
    17:00 +29°C° 0.1 mm 5 mps 742 mmHg 76%
    18:00 +29°C° 0.1 mm 5 mps 743 mmHg 78%
    19:00 +29°C° 0.1 mm 4 mps 743 mmHg 79%
    20:00 +29°C° 0 mm 4 mps 743 mmHg 80%
    21:00 +28°C° 0 mm 4 mps 744 mmHg 80%
    22:00 +28°C° 0 mm 3 mps 744 mmHg 81%
    23:00 +28°C° 0.1 mm 3 mps 744 mmHg 81%

    , 27 October, Sunday

    Time Temperature Precipitation Wind Pressure Humidity
    00:00 +28°C° 0.1 mm 3 mps 743 mmHg 81%
    01:00 +28°C° 0.1 mm 4 mps 743 mmHg 81%
    02:00 +28°C° 0.7 mm 3 mps 743 mmHg 80%
    03:00 +28°C° 0.7 mm 3 mps 742 mmHg 80%
    04:00 +28°C° 0.7 mm 3 mps 742 mmHg 79%
    05:00 +28°C° 1.5 mm 3 mps 742 mmHg 80%
    06:00 +28°C° 1.5 mm 3 mps 743 mmHg 80%
    07:00 +28°C° 1.5 mm 3 mps 743 mmHg 81%
    08:00 +28°C° 1.2 mm 4 mps 744 mmHg 80%
    09:00 +28°C° 1.2 mm 4 mps 744 mmHg 80%
    10:00 +28°C° 1.2 mm 5 mps 744 mmHg 79%
    11:00 +29°C° 0.2 mm 4 mps 744 mmHg 77%
    12:00 +29°C° 0.2 mm 4 mps 743 mmHg 75%
    13:00 +30°C° 0.2 mm 4 mps 742 mmHg 73%
    14:00 +30°C° 0.1 mm 4 mps 742 mmHg 73%
    15:00 +30°C° 0.1 mm 4 mps 742 mmHg 73%
    16:00 +30°C° 0.1 mm 4 mps 742 mmHg 73%
    17:00 +29°C° 0 mm 4 mps 742 mmHg 75%
    18:00 +29°C° 0 mm 4 mps 742 mmHg 77%
    19:00 +28°C° 0 mm 4 mps 743 mmHg 78%
    20:00 +28°C° 0 mm 4 mps 743 mmHg 79%
    21:00 +28°C° 0 mm 4 mps 744 mmHg 79%
    22:00 +28°C° 0 mm 4 mps 744 mmHg 79%
    23:00 +28°C° 0 mm 3 mps 744 mmHg 80%

    27 October, Sunday

    Time Temperature Precipitation Wind Pressure Humidity
    00:00 +28°C° 0.1 mm 3 mps 743 mmHg 81%
    01:00 +28°C° 0.1 mm 4 mps 743 mmHg 81%
    02:00 +28°C° 0.7 mm 3 mps 743 mmHg 80%
    03:00 +28°C° 0.7 mm 3 mps 742 mmHg 80%
    04:00 +28°C° 0.7 mm 3 mps 742 mmHg 79%
    05:00 +28°C° 1.5 mm 3 mps 742 mmHg 80%
    06:00 +28°C° 1.5 mm 3 mps 743 mmHg 80%
    07:00 +28°C° 1.5 mm 3 mps 743 mmHg 81%
    08:00 +28°C° 1.2 mm 4 mps 744 mmHg 80%
    09:00 +28°C° 1.2 mm 4 mps 744 mmHg 80%
    10:00 +28°C° 1.2 mm 5 mps 744 mmHg 79%
    11:00 +29°C° 0.2 mm 4 mps 744 mmHg 77%
    12:00 +29°C° 0.2 mm 4 mps 743 mmHg 75%
    13:00 +30°C° 0.2 mm 4 mps 742 mmHg 73%
    14:00 +30°C° 0.1 mm 4 mps 742 mmHg 73%
    15:00 +30°C° 0.1 mm 4 mps 742 mmHg 73%
    16:00 +30°C° 0.1 mm 4 mps 742 mmHg 73%
    17:00 +29°C° 0 mm 4 mps 742 mmHg 75%
    18:00 +29°C° 0 mm 4 mps 742 mmHg 77%
    19:00 +28°C° 0 mm 4 mps 743 mmHg 78%
    20:00 +28°C° 0 mm 4 mps 743 mmHg 79%
    21:00 +28°C° 0 mm 4 mps 744 mmHg 79%
    22:00 +28°C° 0 mm 4 mps 744 mmHg 79%
    23:00 +28°C° 0 mm 3 mps 744 mmHg 80%

    28 October, Monday

    Time Temperature Precipitation Wind Pressure Humidity
    00:00 +28°C° 0 mm 3 mps 743 mmHg 80%
    01:00 +27°C° 0 mm 3 mps 743 mmHg 81%
    02:00 +27°C° 0 mm 3 mps 743 mmHg 80%
    03:00 +27°C° 0 mm 3 mps 743 mmHg 80%
    04:00 +27°C° 0 mm 3 mps 742 mmHg 80%
    05:00 +27°C° 0.1 mm 3 mps 743 mmHg 79%
    06:00 +28°C° 0.1 mm 3 mps 743 mmHg 79%
    07:00 +28°C° 0.1 mm 3 mps 744 mmHg 78%
    08:00 +29°C° 0 mm 3 mps 744 mmHg 73%
    09:00 +30°C° 0 mm 3 mps 744 mmHg 68%
    10:00 +31°C° 0 mm 3 mps 745 mmHg 64%
    11:00 +31°C° 0 mm 3 mps 744 mmHg 63%
    12:00 +31°C° 0 mm 3 mps 743 mmHg 62%
    13:00 +33°C° 0 mm 3 mps 743 mmHg 61%
    14:00 +31°C° 0 mm 3 mps 742 mmHg 62%
    15:00 +31°C° 0 mm 3 mps 742 mmHg 63%
    16:00 +31°C° 0 mm 3 mps 742 mmHg 64%
    17:00 +30°C° 0 mm 3 mps 742 mmHg 67%
    18:00 +30°C° 0 mm 3 mps 743 mmHg 70%
    19:00 +29°C° 0 mm 4 mps 743 mmHg 73%
    20:00 +29°C° 0 mm 3 mps 744 mmHg 74%
    21:00 +28°C° 0 mm 3 mps 744 mmHg 76%
    22:00 +28°C° 0 mm 3 mps 744 mmHg 78%
    23:00 +28°C° 0 mm 3 mps 744 mmHg 78%

    29 October, Tuesday

    Time Temperature Precipitation Wind Pressure Humidity
    00:00 +28°C° 0 mm 3 mps 744 mmHg 78%
    01:00 +28°C° 0 mm 3 mps 744 mmHg 79%
    02:00 +28°C° 0 mm 3 mps 743 mmHg 78%
    03:00 +27°C° 0 mm 3 mps 743 mmHg 78%
    04:00 +27°C° 0 mm 3 mps 743 mmHg 77%
    05:00 +28°C° 0 mm 3 mps 743 mmHg 77%
    06:00 +28°C° 0 mm 3 mps 744 mmHg 76%
    07:00 +28°C° 0 mm 3 mps 744 mmHg 76%
    08:00 +29°C° 0.1 mm 3 mps 745 mmHg 73%
    09:00 +30°C° 0.1 mm 3 mps 745 mmHg 70%
    10:00 +31°C° 0.1 mm 3 mps 745 mmHg 67%
    11:00 +31°C° 0.6 mm 3 mps 745 mmHg 65%
    12:00 +31°C° 0.6 mm 3 mps 744 mmHg 64%
    13:00 +31°C° 0.6 mm 3 mps 743 mmHg 62%
    14:00 +31°C° 0.3 mm 3 mps 743 mmHg 63%
    15:00 +31°C° 0.3 mm 3 mps 742 mmHg 63%
    16:00 +31°C° 0.3 mm 3 mps 742 mmHg 63%
    17:00 +30°C° 0 mm 3 mps 742 mmHg 66%
    18:00 +29°C° 0 mm 3 mps 743 mmHg 69%
    19:00 +28°C° 0 mm 3 mps 743 mmHg 73%
    20:00 +28°C° 0 mm 3 mps 744 mmHg 74%
    21:00 +28°C° 0 mm 3 mps 744 mmHg 75%
    22:00 +28°C° 0 mm 3 mps 745 mmHg 76%
    23:00 +28°C° 0 mm 3 mps 744 mmHg 77%
    Show more